Weather History for Gulfport, MS

Change the Weather History Date:

Thursday, February 28, 2013

  Actual Average Record
Temperature  
Mean Temperature 50 °F -  
Max Temperature 57 °F 67 °F 79 °F (2011)
Min Temperature 42 °F 48 °F 27 °F (2002)
Degree Days  
Heating Degree Days 16    
Moisture  
Dew Point 35 °F    
Average Humidity 59    
Maximum Humidity 85    
Minimum Humidity 33    
Precipitation  
Precipitation 0.00 in - - ()
Sea Level Pressure  
Sea Level Pressure 30.07 in    
Wind  
Wind Speed 7 mph (NW)    
Max Wind Speed 15 mph    
Max Gust Speed 18 mph    
Visibility 10 miles    
Events      
Averages and records for this station are not official NWS values.
T = Trace of Precipitation, MM = Missing Value Source: NWS Daily Summary

Daily Weather History Graph

Daily Weather History Graph

Search for Another Location

Airport:

Trip Planner

Search our weather history database for the weather conditions in past years. The results will help you decide how hot, cold, wet, or windy it might be!

Date:

Astronomy

Feb. 28, 2013 Rise Set
Actual Time 6:23 AM CST 5:54 PM CST
Civil Twilight 5:59 AM CST 6:18 PM CST
Nautical Twilight 5:31 AM CST 6:46 PM CST
Astronomical Twilight 5:03 AM CST 7:14 PM CST
Moon 9:02 PM CST (2/28) 7:49 AM CST (2/28)
Length of Visible Light 12h 19m
Length of Day
11h 31m
Waning Gibbous, 90% of the Moon is Illuminated
Feb 28
Waning Gibbous
Mar 4
Last Quarter
Mar 11
New
Mar 19
First Quarter
Mar 27
Full

Hourly Weather History & Observations

Time (CST) Temp. Windchill Dew Point Humidity Pressure Visibility Wind Dir Wind Speed Gust Speed Precip Events Conditions
12:53 AM 50.0 °F - 42.8 °F 76% 30.02 in - NW 4.6 mph - N/A   Partly Cloudy
1:53 AM 48.9 °F - 39.9 °F 71% 30.03 in - NNW 6.9 mph - N/A   Scattered Clouds
2:53 AM 46.9 °F - 39.9 °F 77% 30.02 in - NW 6.9 mph - N/A   Scattered Clouds
3:53 AM 46.0 °F 42.5 °F 37.0 °F 71% 30.03 in - NW 6.9 mph - N/A   Clear
4:53 AM 44.1 °F 40.1 °F 36.0 °F 73% 30.05 in - NNW 6.9 mph - N/A   Clear
5:53 AM 42.8 °F 39.3 °F 37.4 °F 81% 30.06 in 10.0 mi NW 5.8 mph - N/A   Clear
6:53 AM 42.1 °F - 37.9 °F 85% 30.08 in 10.0 mi Calm Calm - N/A   Clear
7:53 AM 46.0 °F 44.8 °F 37.9 °F 73% 30.10 in - WNW 3.5 mph - N/A   Clear
8:53 AM 51.1 °F - 35.1 °F 54% 30.10 in 10.0 mi North 11.5 mph - N/A   Clear
9:53 AM 53.1 °F - 36.0 °F 52% 30.11 in 10.0 mi NW 12.7 mph - N/A   Clear
10:53 AM 55.0 °F - 35.1 °F 47% 30.10 in 10.0 mi NW 9.2 mph - N/A   Clear
11:53 AM 57.0 °F - 33.1 °F 40% 30.08 in 10.0 mi NW 12.7 mph - N/A   Clear
12:53 PM 55.9 °F - 30.9 °F 39% 30.06 in 10.0 mi WNW 10.4 mph 18.4 mph N/A   Clear
1:53 PM 57.0 °F - 30.0 °F 36% 30.04 in 10.0 mi NW 15.0 mph - N/A   Clear
2:53 PM 55.9 °F - 27.0 °F 33% 30.04 in 10.0 mi NNW 11.5 mph - N/A   Clear
3:53 PM 53.1 °F - 28.9 °F 40% 30.04 in - WNW 11.5 mph - N/A   Clear
4:53 PM 52.0 °F - 30.9 °F 45% 30.04 in 10.0 mi NNW 10.4 mph - N/A   Clear
5:53 PM 50.0 °F - 32.0 °F 50% 30.05 in - NW 6.9 mph - N/A   Clear
6:53 PM 48.9 °F - 34.0 °F 56% 30.06 in - NW 5.8 mph - N/A   Clear
7:53 PM 48.0 °F - 35.1 °F 61% 30.08 in 10.0 mi Calm Calm - N/A   Clear
8:53 PM 46.9 °F - 35.1 °F 63% 30.11 in 10.0 mi West 3.5 mph - N/A   Clear
9:53 PM 46.9 °F - 36.0 °F 66% 30.11 in 10.0 mi NW 4.6 mph - N/A   Clear
10:53 PM 46.0 °F 44.8 °F 35.1 °F 66% 30.12 in - NNW 3.5 mph - N/A   Clear
11:53 PM 45.0 °F 43.5 °F 35.1 °F 68% 30.12 in - West 3.5 mph - N/A   Clear